sat.trackr.live / text

‹ back to catalog

HODOYOSHI-4

NORAD 40011 · 2014-033B

PAYLOAD ACTIVE UNKNOWN

§ Identity

Operator
Country
JPN
Launch date
2014-06-19
Launch site
DLS
Launch vehicle
Mass (kg)
RCS (m²)
0.47

Purposes: earth_obs

External: N2YO · Heavens-Above · Gunter

§ Orbital elements

Epoch: 2026-05-25T04:07:44.635296Z

Period
96.77 min
Inclination
97.5461°
Eccentricity
0.0024406
Mean motion
14.88062883 rev/d
Perigee alt
586.9 km
Apogee alt
621.0 km
Semi-major
6,982.1 km
B*
3.8868e-5
RAAN
331.1069°
Arg perigee
25.3188°
Mean anomaly
334.9220°
Rev number
64,538

§ Raw data

HODOYOSHI-41 40011U 14033B   26145.17204439  .00000307  00000+0  38868-4 0  99912 40011  97.5461 331.1069 0024406  25.3188 334.9220 14.88062883645383

JSON: /api/v1/satellites/40011 · /tle

For live sub-satellite position, see the globe view (requires WebGL).

§ Visibility from observer

Set your observer location to see the next 7 days of passes ≥ 10°. The values pass through the URL so the page stays shareable.

No JS? Fill the form by hand. The geolocation button needs JavaScript.

§ Radio — SatNOGS DB

ModeDescriptionDownlinkUplink
FM Mode S Down 2.264 GHz

1 transmitter · refreshed weekly from db.satnogs.org